Shannon, Ireland

10:24 PM GMT on March 25, 2017 (GMT +0000)
Shannon

Weather History for EINN - October, 2013

Change the Weather History Date:

Saturday, October 12, 2013

  Actual Average Record
Temperature  
Mean Temperature 48 °F -  
Max Temperature 53 °F 55 °F 69 °F (2001)
Min Temperature 43 °F 44 °F 35 °F (2010)
Degree Days  
Heating Degree Days 17    
Moisture  
Dew Point 47 °F    
Average Humidity 90    
Maximum Humidity 100    
Minimum Humidity 76    
Precipitation  
Precipitation 0.00 in 0.12 in - ()
Sea Level Pressure  
Sea Level Pressure 30.26 in    
Wind  
Wind Speed 6 mph ()    
Max Wind Speed 14 mph    
Max Gust Speed -    
Visibility 6.7 miles    
Events      
Averages and records for this station are not official NWS values.
T = Trace of Precipitation, MM = Missing Value Source: Averaged Metar Reports

Daily Weather History Graph

Daily Weather History Graph

Search for Another Location

Airport or City:

Trip Planner

Search our weather history database for the weather conditions in past years. The results will help you decide how hot, cold, wet, or windy it might be!

Date:

Astronomy

Oct. 12, 2013 Rise Set
Actual Time 7:56 AM IST 6:47 PM IST
Civil Twilight 7:21 AM IST 7:21 PM IST
Nautical Twilight 6:42 AM IST 8:01 PM IST
Astronomical Twilight 6:02 AM IST 8:40 PM IST
Moon 3:32 PM IST (10/12) No Moon Set
Length of Visible Light 11h 59m
Length of Day
10h 50m
First Quarter, 56% of the Moon is Illuminated
Oct 12
First Quarter
Oct 19
Full
Oct 27
Last Quarter
Nov 3
New
Nov 10
First Quarter

Hourly Weather History & Observations

Time (IST) Temp. Windchill Dew Point Humidity Pressure Visibility Wind Dir Wind Speed Gust Speed Precip Events Conditions
12:00 AM 44.6 °F 40.2 °F 42.8 °F 93% 30.36 in 6.2 mi North 8.1 mph - N/A   Partly Cloudy
12:30 AM 44.6 °F 42.2 °F 42.8 °F 93% 30.36 in 6.2 mi NNE 4.6 mph - N/A   Partly Cloudy
1:00 AM 44 °F - 43 °F 96% 30.37 in 11 mi NNE 4.5 mph - -   Scattered Clouds
1:00 AM 44.6 °F 43.1 °F 42.8 °F 93% 30.36 in 6.2 mi Variable 3.5 mph - N/A   Partly Cloudy
1:30 AM 44.6 °F - 42.8 °F 93% 30.33 in 6.2 mi Variable 2.3 mph - N/A   Partly Cloudy
2:00 AM 44.6 °F 42.2 °F 42.8 °F 93% 30.33 in 6.2 mi NNW 4.6 mph - N/A   Partly Cloudy
2:30 AM 44.6 °F 42.2 °F 42.8 °F 93% 30.33 in 6.2 mi North 4.6 mph - N/A   Scattered Clouds
3:00 AM 44.6 °F 39.7 °F 44.6 °F 100% 30.30 in 6.2 mi NNE 9.2 mph - N/A   Mostly Cloudy
3:30 AM 46.4 °F 42.4 °F 44.6 °F 93% 30.30 in 6.2 mi NE 8.1 mph - N/A   Mostly Cloudy
4:00 AM 46.4 °F 45.2 °F 44.6 °F 93% 30.30 in 6.2 mi Variable 3.5 mph - N/A   Mostly Cloudy
4:30 AM 46.4 °F - 44.6 °F 93% 30.30 in 6.2 mi Variable 2.3 mph - N/A   Mostly Cloudy
5:00 AM 46.4 °F 44.3 °F 44.6 °F 93% 30.30 in 6.2 mi NW 4.6 mph - N/A   Mostly Cloudy
5:30 AM 46.4 °F - 44.6 °F 93% 30.30 in 6.2 mi Variable 2.3 mph - N/A   Mostly Cloudy
6:00 AM 44.6 °F 41.4 °F 44.6 °F 100% 30.30 in 6.2 mi West 5.8 mph - N/A   Mostly Cloudy
6:30 AM 46.4 °F 42.9 °F 44.6 °F 93% 30.30 in 6.2 mi NNW 6.9 mph - N/A   Mostly Cloudy
7:00 AM 45 °F - 44 °F 95% 30.31 in 12 mi WNW 4.5 mph - -   Mostly Cloudy
7:00 AM 44.6 °F 42.2 °F 44.6 °F 100% 30.30 in 6.2 mi WNW 4.6 mph - N/A   Mostly Cloudy
7:30 AM 44.6 °F 40.7 °F 44.6 °F 100% 30.30 in 6.2 mi North 6.9 mph - N/A   Mostly Cloudy
8:00 AM 46.4 °F 42.9 °F 46.4 °F 100% 30.27 in 6.2 mi North 6.9 mph - N/A   Mostly Cloudy
8:30 AM 48.2 °F - 46.4 °F 93% 30.27 in 6.2 mi NNE 10.4 mph - N/A   Mostly Cloudy
9:00 AM 50.0 °F - 46.4 °F 87% 30.27 in 6.2 mi NNE 9.2 mph - N/A   Mostly Cloudy
9:30 AM 48.2 °F - 46.4 °F 93% 30.27 in 6.2 mi North 8.1 mph - N/A   Mostly Cloudy
10:00 AM 50.0 °F - 46.4 °F 87% 30.27 in 6.2 mi NNE 13.8 mph - N/A   Mostly Cloudy
10:30 AM 50.0 °F - 46.4 °F 87% 30.27 in 6.2 mi NNE 11.5 mph - N/A   Mostly Cloudy
11:00 AM 50.0 °F - 46.4 °F 87% 30.27 in 6.2 mi NNE 10.4 mph - N/A   Mostly Cloudy
11:30 AM 50.0 °F - 46.4 °F 87% 30.27 in 6.2 mi NNE 10.4 mph - N/A   Mostly Cloudy
12:00 PM 51.8 °F - 46.4 °F 82% 30.27 in 6.2 mi NNE 10.4 mph - N/A   Mostly Cloudy
12:30 PM 51.8 °F - 46.4 °F 82% 30.27 in 6.2 mi NNE 10.4 mph - N/A   Mostly Cloudy
1:00 PM 52 °F - 47 °F 76% 30.27 in 16 mi NNE 11.2 mph - -   Mostly Cloudy
1:00 PM 51.8 °F - 46.4 °F 82% 30.27 in 6.2 mi NNE 10.4 mph - N/A   Mostly Cloudy
1:30 PM 51.8 °F - 46.4 °F 82% 30.24 in 6.2 mi NNE 11.5 mph - N/A   Mostly Cloudy
2:00 PM 51.8 °F - 48.2 °F 88% 30.24 in 6.2 mi NNE 12.7 mph - N/A   Mostly Cloudy
2:30 PM 51.8 °F - 46.4 °F 82% 30.24 in 6.2 mi NE 11.5 mph - N/A   Mostly Cloudy
3:00 PM 51.8 °F - 48.2 °F 88% 30.24 in 6.2 mi NNE 11.5 mph - N/A   Overcast
3:30 PM 51.8 °F - 48.2 °F 88% 30.21 in 6.2 mi NNE 10.4 mph - N/A   Mostly Cloudy
4:00 PM 53.6 °F - 48.2 °F 82% 30.21 in 6.2 mi NNE 11.5 mph - N/A   Mostly Cloudy
4:30 PM 53.6 °F - 48.2 °F 82% 30.21 in 6.2 mi NE 9.2 mph - N/A   Mostly Cloudy
5:00 PM 53.6 °F - 48.2 °F 82% 30.21 in 6.2 mi NNE 8.1 mph - N/A   Overcast
5:30 PM 53.6 °F - 48.2 °F 82% 30.18 in 6.2 mi NNE 6.9 mph - N/A   Overcast
6:00 PM 53.6 °F - 48.2 °F 82% 30.18 in 6.2 mi NNE 6.9 mph - N/A   Overcast
6:30 PM 53.6 °F - 48.2 °F 82% 30.18 in 6.2 mi NNE 6.9 mph - N/A   Overcast
7:00 PM 53 °F - 49 °F 80% 30.21 in 12 mi NNE 6.7 mph - -   Overcast
7:00 PM 53.6 °F - 48.2 °F 82% 30.18 in 6.2 mi NNE 6.9 mph - N/A   Overcast
7:30 PM 53.6 °F - 48.2 °F 82% 30.18 in 6.2 mi NNE 5.8 mph - N/A   Overcast
8:00 PM 51.8 °F - 50.0 °F 94% 30.18 in 6.2 mi NNE 5.8 mph - N/A   Overcast
8:30 PM 51.8 °F - 50.0 °F 94% 30.18 in 6.2 mi NNE 5.8 mph - N/A   Mostly Cloudy
9:00 PM 51.8 °F - 50.0 °F 94% 30.18 in 6.2 mi NNE 4.6 mph - N/A   Mostly Cloudy
9:30 PM 51.8 °F - 50.0 °F 94% 30.18 in 6.2 mi NNE 4.6 mph - N/A   Overcast
10:00 PM 51.8 °F - 50.0 °F 94% 30.18 in 6.2 mi North 3.5 mph - N/A   Overcast
10:30 PM 51.8 °F - 50.0 °F 94% 30.18 in 6.2 mi North 3.5 mph - N/A   Mostly Cloudy
11:00 PM 51.8 °F - 50.0 °F 94% 30.18 in 6.2 mi North 2.3 mph - N/A   Mostly Cloudy
11:30 PM 51.8 °F - 50.0 °F 94% 30.18 in 6.2 mi North 3.5 mph - N/A   Mostly Cloudy